Year,Month,Day,Hour,Minute,Value (Times are PST for temperature in C)
2012,08,21,00,00,15.20
2012,08,21,00,01,15.20
2012,08,21,00,02,15.20
2012,08,21,00,04,15.20
2012,08,21,00,05,15.20
2012,08,21,00,06,15.20
2012,08,21,00,08,15.20
2012,08,21,00,09,15.20
2012,08,21,00,11,15.20
2012,08,21,00,12,15.20
2012,08,21,00,13,15.20
2012,08,21,00,15,15.30
2012,08,21,00,17,15.30
2012,08,21,00,19,15.30
2012,08,21,00,20,15.30
2012,08,21,00,24,15.30
2012,08,21,00,25,15.30
2012,08,21,00,27,15.30
2012,08,21,00,28,15.30
2012,08,21,00,30,15.30
2012,08,21,00,31,15.30
2012,08,21,00,32,15.30
2012,08,21,00,33,15.30
2012,08,21,00,35,15.30
2012,08,21,00,36,15.30
2012,08,21,00,37,15.30
2012,08,21,00,38,15.30
2012,08,21,00,40,15.30
2012,08,21,00,41,15.30
2012,08,21,00,42,15.30
2012,08,21,00,44,15.30
2012,08,21,00,45,15.30
2012,08,21,00,46,15.30
2012,08,21,00,47,15.30
2012,08,21,00,48,15.30
2012,08,21,00,50,15.40
2012,08,21,00,51,15.40
2012,08,21,00,53,15.40
2012,08,21,00,54,15.40
2012,08,21,00,55,15.40
2012,08,21,00,57,15.40
2012,08,21,00,58,15.40
2012,08,21,00,59,15.40
2012,08,21,01,00,15.40
2012,08,21,01,01,15.40
2012,08,21,01,02,15.40
2012,08,21,01,03,15.40
2012,08,21,01,04,15.40
2012,08,21,01,06,15.40
2012,08,21,01,07,15.40
2012,08,21,01,09,15.40
2012,08,21,01,10,15.40
2012,08,21,01,11,15.40
2012,08,21,01,13,15.40
2012,08,21,01,15,15.40
2012,08,21,01,17,15.40
2012,08,21,01,19,15.40
2012,08,21,01,21,15.40
2012,08,21,01,23,15.30
2012,08,21,01,24,15.30
2012,08,21,01,26,15.30
2012,08,21,01,27,15.30
2012,08,21,01,29,15.30
2012,08,21,01,30,15.30
2012,08,21,01,31,15.30
2012,08,21,01,33,15.20
2012,08,21,01,34,15.20
2012,08,21,01,36,15.20
2012,08,21,01,37,15.20
2012,08,21,01,38,15.20
2012,08,21,01,40,15.20
2012,08,21,01,42,15.20
2012,08,21,01,44,15.20
2012,08,21,01,46,15.10
2012,08,21,01,47,15.10
2012,08,21,01,48,15.10
2012,08,21,01,49,15.10
2012,08,21,01,51,15.10
2012,08,21,01,52,15.10
2012,08,21,01,53,15.10
2012,08,21,01,54,15.10
2012,08,21,01,56,15.10
2012,08,21,01,57,15.10
2012,08,21,01,59,15.10
2012,08,21,02,00,15.10
2012,08,21,02,07,15.10
2012,08,21,02,09,15.00
2012,08,21,02,10,15.00
2012,08,21,02,11,15.00
2012,08,21,02,13,15.00
2012,08,21,02,15,15.00
2012,08,21,02,16,15.00
2012,08,21,02,17,15.00
2012,08,21,02,19,15.00
2012,08,21,02,21,15.00
2012,08,21,02,23,15.00
2012,08,21,02,24,15.00
2012,08,21,02,25,15.00
2012,08,21,02,27,15.00
2012,08,21,02,28,15.00
2012,08,21,02,29,15.00
2012,08,21,02,31,15.00
2012,08,21,02,32,15.00
2012,08,21,02,33,15.00
2012,08,21,02,35,15.00
2012,08,21,02,36,15.00
2012,08,21,02,37,15.00
2012,08,21,02,39,15.00
2012,08,21,02,40,15.00
2012,08,21,02,42,15.00
2012,08,21,02,44,15.00
2012,08,21,02,46,15.00
2012,08,21,02,48,15.00
2012,08,21,02,49,15.00
2012,08,21,02,50,15.00
2012,08,21,02,51,15.00
2012,08,21,02,52,15.00
2012,08,21,02,54,15.00
2012,08,21,02,55,15.00
2012,08,21,02,57,15.00
2012,08,21,02,58,15.00
2012,08,21,02,59,14.90
2012,08,21,03,00,14.90
2012,08,21,03,02,14.90
2012,08,21,03,03,14.90
2012,08,21,03,05,14.90
2012,08,21,03,07,14.90
2012,08,21,03,08,14.90
2012,08,21,03,09,14.90
2012,08,21,03,11,14.80
2012,08,21,03,12,14.80
2012,08,21,03,13,14.80
2012,08,21,03,15,14.80
2012,08,21,03,17,14.80
2012,08,21,03,19,14.80
2012,08,21,03,21,14.80
2012,08,21,03,22,14.80
2012,08,21,03,23,14.80
2012,08,21,03,25,14.80
2012,08,21,03,26,14.80
2012,08,21,03,27,14.80
2012,08,21,03,29,14.80
2012,08,21,03,30,14.80
2012,08,21,03,31,14.80
2012,08,21,03,33,14.80
2012,08,21,03,34,14.80
2012,08,21,03,36,14.80
2012,08,21,03,37,14.80
2012,08,21,03,38,14.80
2012,08,21,03,40,14.80
2012,08,21,03,41,14.80
2012,08,21,03,42,14.80
2012,08,21,03,44,14.80
2012,08,21,03,46,14.80
2012,08,21,03,48,14.80
2012,08,21,03,49,14.70
2012,08,21,03,50,14.70
2012,08,21,03,51,14.70
2012,08,21,03,52,14.70
2012,08,21,03,54,14.70
2012,08,21,03,55,14.70
2012,08,21,03,56,14.70
2012,08,21,03,57,14.70
2012,08,21,03,59,14.70
2012,08,21,04,00,14.70
2012,08,21,04,01,14.70
2012,08,21,04,03,14.70
2012,08,21,04,04,14.70
2012,08,21,04,05,14.70
2012,08,21,04,06,14.80
2012,08,21,04,08,14.80
2012,08,21,04,09,14.80
2012,08,21,04,11,14.80
2012,08,21,04,12,14.80
2012,08,21,04,13,14.80
2012,08,21,04,14,14.80
2012,08,21,04,15,14.80
2012,08,21,04,16,14.80
2012,08,21,04,17,14.80
2012,08,21,04,19,14.80
2012,08,21,04,21,14.80
2012,08,21,04,22,14.80
2012,08,21,04,23,14.80
2012,08,21,04,24,14.80
2012,08,21,04,25,14.80
2012,08,21,04,26,14.80
2012,08,21,04,28,14.70
2012,08,21,04,29,14.70
2012,08,21,04,30,14.70
2012,08,21,04,32,14.70
2012,08,21,04,33,14.70
2012,08,21,04,35,14.70
2012,08,21,04,36,14.70
2012,08,21,04,37,14.70
2012,08,21,04,39,14.70
2012,08,21,04,41,14.70
2012,08,21,04,42,14.70
2012,08,21,04,43,14.70
2012,08,21,04,45,14.70
2012,08,21,04,46,14.70
2012,08,21,04,47,14.70
2012,08,21,04,48,14.60
2012,08,21,04,49,14.60
2012,08,21,04,51,14.60
2012,08,21,04,52,14.60
2012,08,21,04,53,14.60
2012,08,21,04,54,14.60
2012,08,21,04,55,14.60
2012,08,21,04,56,14.60
2012,08,21,04,57,14.60
2012,08,21,04,59,14.60
2012,08,21,05,00,14.60
2012,08,21,05,01,14.60
2012,08,21,05,02,14.60
2012,08,21,05,04,14.60
2012,08,21,05,05,14.60
2012,08,21,05,07,14.50
2012,08,21,05,08,14.50
2012,08,21,05,09,14.50
2012,08,21,05,11,14.50
2012,08,21,05,12,14.50
2012,08,21,05,14,14.50
2012,08,21,05,15,14.50
2012,08,21,05,16,14.40
2012,08,21,05,18,14.40
2012,08,21,05,19,14.40
2012,08,21,05,20,14.40
2012,08,21,05,21,14.40
2012,08,21,05,23,14.40
2012,08,21,05,24,14.40
2012,08,21,05,25,14.40
2012,08,21,05,26,14.30
2012,08,21,05,27,14.30
2012,08,21,05,29,14.30
2012,08,21,05,30,14.30
2012,08,21,05,31,14.30
2012,08,21,05,33,14.20
2012,08,21,05,34,14.20
2012,08,21,05,35,14.20
2012,08,21,05,37,14.20
2012,08,21,05,38,14.20
2012,08,21,05,39,14.20
2012,08,21,05,40,14.20
2012,08,21,05,42,14.10
2012,08,21,05,43,14.10
2012,08,21,05,44,14.10
2012,08,21,05,45,14.10
2012,08,21,05,46,14.10
2012,08,21,05,47,14.10
2012,08,21,05,48,14.00
2012,08,21,05,49,14.00
2012,08,21,05,51,14.00
2012,08,21,05,52,13.90
2012,08,21,05,54,13.90
2012,08,21,05,55,13.90
2012,08,21,05,56,13.90
2012,08,21,05,57,13.90
2012,08,21,05,58,13.80
2012,08,21,05,59,13.80
2012,08,21,06,02,13.70
2012,08,21,06,04,13.70
2012,08,21,06,05,13.70
2012,08,21,06,06,13.60
2012,08,21,06,07,13.60
2012,08,21,06,08,13.60
2012,08,21,06,09,13.60
2012,08,21,06,10,13.60
2012,08,21,06,11,13.60
2012,08,21,06,12,13.60
2012,08,21,06,13,13.50
2012,08,21,06,14,13.40
2012,08,21,06,15,13.40
2012,08,21,06,16,13.40
2012,08,21,06,17,13.40
2012,08,21,06,18,13.30
2012,08,21,06,19,13.30
2012,08,21,06,20,13.30
2012,08,21,06,21,13.30
2012,08,21,06,22,13.30
2012,08,21,06,23,13.30
2012,08,21,06,24,13.30
2012,08,21,06,25,13.30
2012,08,21,06,26,13.30
2012,08,21,06,27,13.30
2012,08,21,06,28,13.30
2012,08,21,06,29,13.30
2012,08,21,06,30,13.30
2012,08,21,06,31,13.20
2012,08,21,06,32,13.20
2012,08,21,06,33,13.20
2012,08,21,06,34,13.10
2012,08,21,06,35,13.10
2012,08,21,06,36,13.10
2012,08,21,06,37,13.10
2012,08,21,06,38,13.10
2012,08,21,06,39,13.10
2012,08,21,06,40,13.00
2012,08,21,06,41,13.00
2012,08,21,06,42,13.00
2012,08,21,06,43,13.00
2012,08,21,06,44,13.00
2012,08,21,06,45,13.00
2012,08,21,06,46,12.90
2012,08,21,06,47,12.90
2012,08,21,06,48,12.90
2012,08,21,06,49,12.90
2012,08,21,06,50,12.90
2012,08,21,06,51,12.90
2012,08,21,06,52,12.90
2012,08,21,06,53,12.90
2012,08,21,06,54,12.90
2012,08,21,06,55,12.90
2012,08,21,06,56,12.90
2012,08,21,06,57,12.80
2012,08,21,06,58,12.80
2012,08,21,06,59,12.80
2012,08,21,07,00,12.80
2012,08,21,07,02,12.70
2012,08,21,07,03,12.70
2012,08,21,07,04,12.70
2012,08,21,07,05,12.70
2012,08,21,07,06,12.70
2012,08,21,07,07,12.70
2012,08,21,07,08,12.70
2012,08,21,07,09,12.60
2012,08,21,07,10,12.60
2012,08,21,07,11,12.60
2012,08,21,07,12,12.60
2012,08,21,07,13,12.60
2012,08,21,07,14,12.60
2012,08,21,07,15,12.60
2012,08,21,07,16,12.60
2012,08,21,07,17,12.60
2012,08,21,07,18,12.60
2012,08,21,07,19,12.60
2012,08,21,07,20,12.60
2012,08,21,07,21,12.60
2012,08,21,07,22,12.60
2012,08,21,07,23,12.60
2012,08,21,07,24,12.60
2012,08,21,07,25,12.60
2012,08,21,07,26,12.60
2012,08,21,07,27,12.70
2012,08,21,07,28,12.70
2012,08,21,07,29,12.70
2012,08,21,07,30,12.70
2012,08,21,07,31,12.80
2012,08,21,07,32,12.80
2012,08,21,07,33,12.80
2012,08,21,07,34,12.90
2012,08,21,07,35,12.90
2012,08,21,07,36,12.90
2012,08,21,07,37,13.00
2012,08,21,07,38,13.10
2012,08,21,07,39,13.10
2012,08,21,07,40,13.10
2012,08,21,07,41,13.10
2012,08,21,07,42,13.20
2012,08,21,07,43,13.20
2012,08,21,07,44,13.20
2012,08,21,07,45,13.20
2012,08,21,07,46,13.20
2012,08,21,07,47,13.20
2012,08,21,07,48,13.30
2012,08,21,07,49,13.30
2012,08,21,07,50,13.30
2012,08,21,07,51,13.30
2012,08,21,07,52,13.30
2012,08,21,07,53,13.30
2012,08,21,07,54,13.30
2012,08,21,07,55,13.30
2012,08,21,07,56,13.30
2012,08,21,07,57,13.30
2012,08,21,07,58,13.30
2012,08,21,07,59,13.30
2012,08,21,08,00,13.30
2012,08,21,08,01,13.30
2012,08,21,08,02,13.30
2012,08,21,08,03,13.30
2012,08,21,08,04,13.30
2012,08,21,08,05,13.30
2012,08,21,08,06,13.30
2012,08,21,08,07,13.30
2012,08,21,08,08,13.30
2012,08,21,08,09,13.30
2012,08,21,08,10,13.30
2012,08,21,08,11,13.40
2012,08,21,08,12,13.40
2012,08,21,08,13,13.30
2012,08,21,08,14,13.40
2012,08,21,08,15,13.40
2012,08,21,08,16,13.40
2012,08,21,08,17,13.40
2012,08,21,08,18,13.40
2012,08,21,08,19,13.40
2012,08,21,08,20,13.40
2012,08,21,08,21,13.40
2012,08,21,08,22,13.40
2012,08,21,08,23,13.40
2012,08,21,08,24,13.40
2012,08,21,08,25,13.40
2012,08,21,08,26,13.40
2012,08,21,08,27,13.40
2012,08,21,08,28,13.40
2012,08,21,08,29,13.40
2012,08,21,08,30,13.40
2012,08,21,08,31,13.40
2012,08,21,08,32,13.40
2012,08,21,08,33,13.50
2012,08,21,08,34,13.50
2012,08,21,08,35,13.50
2012,08,21,08,36,13.60
2012,08,21,08,37,13.60
2012,08,21,08,38,13.60
2012,08,21,08,39,13.60
2012,08,21,08,40,13.70
2012,08,21,08,41,13.80
2012,08,21,08,42,13.80
2012,08,21,08,43,13.90
2012,08,21,08,44,13.90
2012,08,21,08,45,14.10
2012,08,21,08,46,14.10
2012,08,21,08,47,14.20
2012,08,21,08,48,14.30
2012,08,21,08,49,14.30
2012,08,21,08,50,14.40
2012,08,21,08,51,14.40
2012,08,21,08,52,14.60
2012,08,21,08,53,14.60
2012,08,21,08,54,14.70
2012,08,21,08,55,14.80
2012,08,21,08,56,14.90
2012,08,21,08,57,15.00
2012,08,21,08,58,15.00
2012,08,21,08,59,15.00
2012,08,21,09,00,15.10
2012,08,21,09,01,15.20
2012,08,21,09,02,15.30
2012,08,21,09,03,15.30
2012,08,21,09,04,15.30
2012,08,21,09,05,15.30
2012,08,21,09,06,15.40
2012,08,21,09,07,15.40
2012,08,21,09,08,15.40
2012,08,21,09,09,15.50
2012,08,21,09,10,15.50
2012,08,21,09,11,15.60
2012,08,21,09,12,15.70
2012,08,21,09,13,15.80
2012,08,21,09,14,15.80
2012,08,21,09,15,15.90
2012,08,21,09,16,15.90
2012,08,21,09,17,16.10
2012,08,21,09,18,16.20
2012,08,21,09,19,16.20
2012,08,21,09,20,16.30
2012,08,21,09,21,16.30
2012,08,21,09,22,16.30
2012,08,21,09,23,16.30
2012,08,21,09,24,16.30
2012,08,21,09,25,16.40
2012,08,21,09,26,16.40
2012,08,21,09,27,16.50
2012,08,21,09,28,16.60
2012,08,21,09,29,16.60
2012,08,21,09,30,16.70
2012,08,21,09,31,16.70
2012,08,21,09,32,16.80
2012,08,21,09,33,16.80
2012,08,21,09,34,16.80
2012,08,21,09,35,16.80
2012,08,21,09,36,16.80
2012,08,21,09,37,16.80
2012,08,21,09,38,16.80
2012,08,21,09,39,16.80
2012,08,21,09,40,16.80
2012,08,21,09,41,16.90
2012,08,21,09,42,16.80
2012,08,21,09,43,16.90
2012,08,21,09,44,16.90
2012,08,21,09,45,16.90
2012,08,21,09,46,16.90
2012,08,21,09,47,16.90
2012,08,21,09,48,16.90
2012,08,21,09,49,16.90
2012,08,21,09,50,16.90
2012,08,21,09,51,16.90
2012,08,21,09,52,16.90
2012,08,21,09,53,16.90
2012,08,21,09,54,16.90
2012,08,21,09,55,17.00
2012,08,21,09,56,17.00
2012,08,21,09,57,17.10
2012,08,21,09,58,17.10
2012,08,21,09,59,17.20
2012,08,21,10,00,17.30
2012,08,21,10,01,17.30
2012,08,21,10,02,17.40
2012,08,21,10,03,17.50
2012,08,21,10,04,17.60
2012,08,21,10,05,17.70
2012,08,21,10,06,17.80
2012,08,21,10,07,17.90
2012,08,21,10,08,18.10
2012,08,21,10,09,18.20
2012,08,21,10,10,18.20
2012,08,21,10,11,18.30
2012,08,21,10,12,18.30
2012,08,21,10,13,18.40
2012,08,21,10,14,18.50
2012,08,21,10,15,18.50
2012,08,21,10,16,18.60
2012,08,21,10,17,18.60
2012,08,21,10,18,18.60
2012,08,21,10,19,18.60
2012,08,21,10,20,18.60
2012,08,21,10,21,18.50
2012,08,21,10,22,18.50
2012,08,21,10,23,18.60
2012,08,21,10,24,18.60
2012,08,21,10,25,18.60
2012,08,21,10,26,18.60
2012,08,21,10,27,18.60
2012,08,21,10,28,18.70
2012,08,21,10,29,18.70
2012,08,21,10,30,18.70
2012,08,21,10,31,18.70
2012,08,21,10,32,18.80
2012,08,21,10,33,18.80
2012,08,21,10,34,18.80
2012,08,21,10,35,18.90
2012,08,21,10,36,18.90
2012,08,21,10,37,18.90
2012,08,21,10,38,18.90
2012,08,21,10,39,18.90
2012,08,21,10,40,18.90
2012,08,21,10,41,18.90
2012,08,21,10,42,18.90
2012,08,21,10,43,18.90
2012,08,21,10,44,18.90
2012,08,21,10,45,18.90
2012,08,21,10,46,18.90
2012,08,21,10,47,18.90
2012,08,21,10,48,19.00
2012,08,21,10,49,19.10
2012,08,21,10,50,19.10
2012,08,21,10,51,19.10
2012,08,21,10,52,19.10
2012,08,21,10,53,19.20
2012,08,21,10,54,19.20
2012,08,21,10,55,19.20
2012,08,21,10,56,19.30
2012,08,21,10,57,19.30
2012,08,21,10,58,19.30
2012,08,21,10,59,19.30
2012,08,21,11,00,19.40
2012,08,21,11,01,19.40
2012,08,21,11,02,19.40
2012,08,21,11,03,19.40
2012,08,21,11,04,19.40
2012,08,21,11,05,19.40
2012,08,21,11,06,19.50
2012,08,21,11,07,19.60
2012,08,21,11,08,19.60
2012,08,21,11,09,19.70
2012,08,21,11,10,19.80
2012,08,21,11,11,19.80
2012,08,21,11,12,19.90
2012,08,21,11,13,19.90
2012,08,21,11,14,19.90
2012,08,21,11,15,19.80
2012,08,21,11,16,19.80
2012,08,21,11,17,19.80
2012,08,21,11,18,19.70
2012,08,21,11,19,19.70
2012,08,21,11,20,19.70
2012,08,21,11,21,19.70
2012,08,21,11,22,19.70
2012,08,21,11,23,19.70
2012,08,21,11,24,19.70
2012,08,21,11,25,19.70
2012,08,21,11,26,19.70
2012,08,21,11,27,19.70
2012,08,21,11,28,19.80
2012,08,21,11,29,19.80
2012,08,21,11,30,19.80
2012,08,21,11,31,19.80
2012,08,21,11,32,19.90
2012,08,21,11,33,19.80
2012,08,21,11,34,19.90
2012,08,21,11,35,19.80
2012,08,21,11,36,19.80
2012,08,21,11,37,19.80
2012,08,21,11,38,19.90
2012,08,21,11,39,19.90
2012,08,21,11,40,19.90
2012,08,21,11,41,19.90
2012,08,21,11,42,19.90
2012,08,21,11,43,20.00
2012,08,21,11,44,20.00
2012,08,21,11,45,20.00
2012,08,21,11,46,20.00
2012,08,21,11,47,20.10
2012,08,21,11,48,20.10
2012,08,21,11,49,20.20
2012,08,21,11,50,20.20
2012,08,21,11,51,20.10
2012,08,21,11,52,20.20
2012,08,21,11,53,20.20
2012,08,21,11,54,20.20
2012,08,21,11,55,20.20
2012,08,21,11,56,20.10
2012,08,21,11,57,20.10
2012,08,21,11,58,20.00
2012,08,21,11,59,19.90
2012,08,21,12,00,19.90
2012,08,21,12,01,19.90
2012,08,21,12,02,19.90
2012,08,21,12,03,20.00
2012,08,21,12,04,20.10
2012,08,21,12,05,20.10
2012,08,21,12,06,20.10
2012,08,21,12,07,20.10
2012,08,21,12,08,20.10
2012,08,21,12,09,20.10
2012,08,21,12,10,20.10
2012,08,21,12,11,20.10
2012,08,21,12,12,20.00
2012,08,21,12,13,19.90
2012,08,21,12,14,19.90
2012,08,21,12,15,19.80
2012,08,21,12,16,19.80
2012,08,21,12,17,19.80
2012,08,21,12,18,19.80
2012,08,21,12,19,19.90
2012,08,21,12,20,19.90
2012,08,21,12,21,19.90
2012,08,21,12,22,19.90
2012,08,21,12,23,20.00
2012,08,21,12,24,20.10
2012,08,21,12,25,20.10
2012,08,21,12,26,20.10
2012,08,21,12,27,20.10
2012,08,21,12,28,20.10
2012,08,21,12,29,20.00
2012,08,21,12,30,19.90
2012,08,21,12,31,19.90
2012,08,21,12,32,20.00
2012,08,21,12,33,20.00
2012,08,21,12,34,20.00
2012,08,21,12,35,20.10
2012,08,21,12,36,20.00
2012,08,21,12,37,20.00
2012,08,21,12,38,19.90
2012,08,21,12,39,19.90
2012,08,21,12,40,19.90
2012,08,21,12,41,19.90
2012,08,21,12,42,19.90
2012,08,21,12,43,19.90
2012,08,21,12,44,19.90
2012,08,21,12,45,19.90
2012,08,21,12,46,19.90
2012,08,21,12,47,19.90
2012,08,21,12,48,19.90
2012,08,21,12,49,20.00
2012,08,21,12,50,20.10
2012,08,21,12,51,20.10
2012,08,21,12,52,20.20
2012,08,21,12,53,20.20
2012,08,21,12,54,20.20
2012,08,21,12,55,20.20
2012,08,21,12,56,20.10
2012,08,21,12,57,20.10
2012,08,21,12,58,20.10
2012,08,21,12,59,20.00
2012,08,21,13,00,19.90
2012,08,21,13,01,19.90
2012,08,21,13,02,19.90
2012,08,21,13,03,19.90
2012,08,21,13,04,19.90
2012,08,21,13,05,19.90
2012,08,21,13,06,20.00
2012,08,21,13,07,20.00
2012,08,21,13,08,20.00
2012,08,21,13,09,20.10
2012,08,21,13,10,20.00
2012,08,21,13,11,20.00
2012,08,21,13,12,20.10
2012,08,21,13,13,20.10
2012,08,21,13,14,20.10
2012,08,21,13,15,20.20
2012,08,21,13,16,20.20
2012,08,21,13,17,20.20
2012,08,21,13,18,20.20
2012,08,21,13,19,20.20
2012,08,21,13,20,20.20
2012,08,21,13,21,20.20
2012,08,21,13,22,20.20
2012,08,21,13,23,20.20
2012,08,21,13,24,20.20
2012,08,21,13,25,20.20
2012,08,21,13,26,20.20
2012,08,21,13,27,20.20
2012,08,21,13,28,20.20
2012,08,21,13,29,20.20
2012,08,21,13,30,20.20
2012,08,21,13,31,20.20
2012,08,21,13,32,20.20
2012,08,21,13,33,20.20
2012,08,21,13,34,20.20
2012,08,21,13,35,20.20
2012,08,21,13,36,20.20
2012,08,21,13,37,20.20
2012,08,21,13,38,20.20
2012,08,21,13,39,20.20
2012,08,21,13,40,20.20
2012,08,21,13,41,20.20
2012,08,21,13,42,20.20
2012,08,21,13,43,20.20
2012,08,21,13,44,20.10
2012,08,21,13,45,20.10
2012,08,21,13,46,20.10
2012,08,21,13,47,20.00
2012,08,21,13,48,20.00
2012,08,21,13,49,20.00
2012,08,21,13,50,20.00
2012,08,21,13,51,20.00
2012,08,21,13,52,20.00
2012,08,21,13,53,20.00
2012,08,21,13,54,20.00
2012,08,21,13,55,20.10
2012,08,21,13,56,20.10
2012,08,21,13,57,20.00
2012,08,21,13,58,20.00
2012,08,21,13,59,19.90
2012,08,21,14,00,20.00
2012,08,21,14,01,20.00
2012,08,21,14,02,20.00
2012,08,21,14,03,20.00
2012,08,21,14,04,20.00
2012,08,21,14,05,20.00
2012,08,21,14,06,20.00
2012,08,21,14,07,20.10
2012,08,21,14,08,20.10
2012,08,21,14,09,20.10
2012,08,21,14,10,20.20
2012,08,21,14,11,20.20
2012,08,21,14,12,20.20
2012,08,21,14,13,20.20
2012,08,21,14,14,20.20
2012,08,21,14,15,20.30
2012,08,21,14,16,20.30
2012,08,21,14,17,20.20
2012,08,21,14,18,20.20
2012,08,21,14,19,20.20
2012,08,21,14,20,20.20
2012,08,21,14,21,20.20
2012,08,21,14,22,20.20
2012,08,21,14,23,20.20
2012,08,21,14,24,20.20
2012,08,21,14,25,20.20
2012,08,21,14,26,20.20
2012,08,21,14,27,20.30
2012,08,21,14,28,20.30
2012,08,21,14,29,20.30
2012,08,21,14,30,20.30
2012,08,21,14,31,20.40
2012,08,21,14,32,20.40
2012,08,21,14,33,20.40
2012,08,21,14,34,20.40
2012,08,21,14,35,20.40
2012,08,21,14,36,20.40
2012,08,21,14,37,20.40
2012,08,21,14,38,20.40
2012,08,21,14,39,20.40
2012,08,21,14,40,20.40
2012,08,21,14,41,20.40
2012,08,21,14,42,20.40
2012,08,21,14,43,20.40
2012,08,21,14,44,20.40
2012,08,21,14,45,20.40
2012,08,21,14,46,20.40
2012,08,21,14,47,20.40
2012,08,21,14,48,20.40
2012,08,21,14,49,20.40
2012,08,21,14,50,20.40
2012,08,21,14,51,20.30
2012,08,21,14,52,20.30
2012,08,21,14,53,20.30
2012,08,21,14,54,20.30
2012,08,21,14,55,20.30
2012,08,21,14,56,20.30
2012,08,21,14,57,20.30
2012,08,21,14,58,20.30
2012,08,21,14,59,20.30
2012,08,21,15,00,20.30
2012,08,21,15,01,20.20
2012,08,21,15,02,20.30
2012,08,21,15,03,20.30
2012,08,21,15,04,20.30
2012,08,21,15,05,20.30
2012,08,21,15,06,20.30
2012,08,21,15,07,20.30
2012,08,21,15,08,20.30
2012,08,21,15,09,20.30
2012,08,21,15,10,20.30
2012,08,21,15,11,20.30
2012,08,21,15,12,20.30
2012,08,21,15,13,20.40
2012,08,21,15,14,20.40
2012,08,21,15,15,20.40
2012,08,21,15,16,20.40
2012,08,21,15,17,20.30
2012,08,21,15,18,20.30
2012,08,21,15,19,20.30
2012,08,21,15,20,20.30
2012,08,21,15,21,20.40
2012,08,21,15,22,20.40
2012,08,21,15,23,20.40
2012,08,21,15,24,20.40
2012,08,21,15,25,20.50
2012,08,21,15,26,20.40
2012,08,21,15,27,20.40
2012,08,21,15,28,20.30
2012,08,21,15,29,20.30
2012,08,21,15,30,20.20
2012,08,21,15,31,20.20
2012,08,21,15,32,20.20
2012,08,21,15,33,20.20
2012,08,21,15,34,20.20
2012,08,21,15,35,20.20
2012,08,21,15,36,20.20
2012,08,21,15,37,20.20
2012,08,21,15,38,20.20
2012,08,21,15,39,20.30
2012,08,21,15,40,20.30
2012,08,21,15,41,20.30
2012,08,21,15,42,20.30
2012,08,21,15,43,20.30
2012,08,21,15,44,20.30
2012,08,21,15,45,20.30
2012,08,21,15,46,20.20
2012,08,21,15,47,20.20
2012,08,21,15,48,20.30
2012,08,21,15,49,20.30
2012,08,21,15,50,20.30
2012,08,21,15,51,20.40
2012,08,21,15,52,20.40
2012,08,21,15,53,20.40
2012,08,21,15,54,20.40
2012,08,21,15,55,20.30
2012,08,21,15,56,20.30
2012,08,21,15,57,20.30
2012,08,21,15,58,20.30
2012,08,21,15,59,20.30
2012,08,21,16,00,20.30
2012,08,21,16,01,20.30
2012,08,21,16,02,20.30
2012,08,21,16,03,20.30
2012,08,21,16,04,20.30
2012,08,21,16,05,20.30
2012,08,21,16,06,20.40
2012,08,21,16,07,20.40
2012,08,21,16,08,20.60
2012,08,21,16,09,20.70
2012,08,21,16,10,20.80
2012,08,21,16,11,20.90
2012,08,21,16,12,21.00
2012,08,21,16,13,21.10
2012,08,21,16,14,21.20
2012,08,21,16,15,21.20
2012,08,21,16,16,21.30
2012,08,21,16,17,21.30
2012,08,21,16,18,21.20
2012,08,21,16,19,21.20
2012,08,21,16,20,21.10
2012,08,21,16,21,21.10
2012,08,21,16,22,21.10
2012,08,21,16,23,21.00
2012,08,21,16,24,20.90
2012,08,21,16,25,20.80
2012,08,21,16,26,20.70
2012,08,21,16,27,20.60
2012,08,21,16,28,20.40
2012,08,21,16,29,20.30
2012,08,21,16,30,20.20
2012,08,21,16,31,20.20
2012,08,21,16,32,20.20
2012,08,21,16,33,20.20
2012,08,21,16,34,20.10
2012,08,21,16,35,20.10
2012,08,21,16,36,20.10
2012,08,21,16,37,20.20
2012,08,21,16,38,20.20
2012,08,21,16,39,20.10
2012,08,21,16,40,20.10
2012,08,21,16,41,20.10
2012,08,21,16,42,20.00
2012,08,21,16,43,20.00
2012,08,21,16,44,20.00
2012,08,21,16,45,20.00
2012,08,21,16,46,20.00
2012,08,21,16,47,19.90
2012,08,21,16,48,19.90
2012,08,21,16,49,19.90
2012,08,21,16,50,20.00
2012,08,21,16,51,20.00
2012,08,21,16,52,20.00
2012,08,21,16,53,20.00
2012,08,21,16,54,20.00
2012,08,21,16,55,20.10
2012,08,21,16,56,20.10
2012,08,21,16,57,20.20
2012,08,21,16,58,20.20
2012,08,21,16,59,20.30
2012,08,21,17,00,20.30
2012,08,21,17,01,20.30
2012,08,21,17,02,20.20
2012,08,21,17,03,20.20
2012,08,21,17,04,20.10
2012,08,21,17,05,20.10
2012,08,21,17,06,20.00
2012,08,21,17,07,20.00
2012,08,21,17,08,19.90
2012,08,21,17,09,19.90
2012,08,21,17,11,19.80
2012,08,21,17,12,19.80
2012,08,21,17,13,19.70
2012,08,21,17,15,19.70
2012,08,21,17,16,19.70
2012,08,21,17,17,19.60
2012,08,21,17,18,19.60
2012,08,21,17,19,19.70
2012,08,21,17,20,19.60
2012,08,21,17,21,19.60
2012,08,21,17,22,19.60
2012,08,21,17,23,19.60
2012,08,21,17,24,19.60
2012,08,21,17,25,19.60
2012,08,21,17,26,19.60
2012,08,21,17,27,19.60
2012,08,21,17,28,19.60
2012,08,21,17,29,19.60
2012,08,21,17,30,19.60
2012,08,21,17,31,19.60
2012,08,21,17,32,19.60
2012,08,21,17,33,19.50
2012,08,21,17,34,19.50
2012,08,21,17,35,19.50
2012,08,21,17,36,19.50
2012,08,21,17,37,19.50
2012,08,21,17,38,19.50
2012,08,21,17,39,19.50
2012,08,21,17,40,19.50
2012,08,21,17,41,19.50
2012,08,21,17,42,19.60
2012,08,21,17,43,19.60
2012,08,21,17,44,19.60
2012,08,21,17,45,19.50
2012,08,21,17,46,19.40
2012,08,21,17,47,19.30
2012,08,21,17,48,19.30
2012,08,21,17,49,19.20
2012,08,21,17,50,19.20
2012,08,21,17,51,19.20
2012,08,21,17,52,19.20
2012,08,21,17,53,19.20
2012,08,21,17,54,19.20
2012,08,21,17,55,19.20
2012,08,21,17,56,19.30
2012,08,21,17,57,19.30
2012,08,21,17,58,19.30
2012,08,21,17,59,19.30
2012,08,21,18,01,19.30
2012,08,21,18,02,19.30
2012,08,21,18,03,19.20
2012,08,21,18,05,19.20
2012,08,21,18,06,19.20
2012,08,21,18,07,19.20
2012,08,21,18,08,19.20
2012,08,21,18,09,19.20
2012,08,21,18,10,19.10
2012,08,21,18,11,19.10
2012,08,21,18,12,19.00
2012,08,21,18,13,18.90
2012,08,21,18,14,18.90
2012,08,21,18,15,18.80
2012,08,21,18,16,18.80
2012,08,21,18,17,18.80
2012,08,21,18,18,18.70
2012,08,21,18,19,18.70
2012,08,21,18,20,18.70
2012,08,21,18,21,18.60
2012,08,21,18,22,18.60
2012,08,21,18,23,18.60
2012,08,21,18,24,18.60
2012,08,21,18,25,18.50
2012,08,21,18,26,18.50
2012,08,21,18,27,18.40
2012,08,21,18,28,18.40
2012,08,21,18,29,18.40
2012,08,21,18,30,18.40
2012,08,21,18,31,18.40
2012,08,21,18,32,18.40
2012,08,21,18,33,18.40
2012,08,21,18,34,18.40
2012,08,21,18,35,18.40
2012,08,21,18,36,18.40
2012,08,21,18,37,18.40
2012,08,21,18,38,18.40
2012,08,21,18,39,18.50
2012,08,21,18,40,18.50
2012,08,21,18,41,18.50
2012,08,21,18,42,18.60
2012,08,21,18,43,18.60
2012,08,21,18,44,18.60
2012,08,21,18,45,18.60
2012,08,21,18,46,18.60
2012,08,21,18,47,18.60
2012,08,21,18,48,18.70
2012,08,21,18,49,18.70
2012,08,21,18,50,18.70
2012,08,21,18,51,18.70
2012,08,21,18,52,18.70
2012,08,21,18,53,18.70
2012,08,21,18,54,18.70
2012,08,21,18,55,18.70
2012,08,21,18,56,18.70
2012,08,21,18,57,18.70
2012,08,21,18,58,18.70
2012,08,21,18,59,18.70
2012,08,21,19,00,18.70
2012,08,21,19,01,18.70
2012,08,21,19,02,18.70
2012,08,21,19,03,18.60
2012,08,21,19,04,18.60
2012,08,21,19,05,18.60
2012,08,21,19,06,18.60
2012,08,21,19,07,18.60
2012,08,21,19,08,18.40